Showing default

COSMOS 44, 876

Orbit data source: Space-Track

COSMOS 44, 876 is a payload satellite owned by VNIIEM (CIS) in LEO that was launched on Fri, 28 Aug 1964 UTC via a VOSTOK 8A92M launch vehicle from the Tyuratam Missile And Space Complex (TTMTR). Payload-class satellites include a variety of spacecraft equipped with specific instruments for various scientific and technological missions. These include communications satellites like Starlink; space stations such as the ISS; scientific satellites like the Hubble; Earth observation satellites from companies like Planet Labs, Umbra, and HawkEye 360; GPS; miniature CubeSats for education and research; and military/defense satellites.

Loading next visibility...
Identifier
876, 1964-053A
Orbit
LEO
Last TLE update
10 hours ago
Origin
Manufacturer
VNIIEM
Mission
Defense Weather
Bus & Motor
METEOR, Unknown motor
Mass
~1,250 kg wet, ~1,250 kg dry
Launch date (UTC)
1964-08-28 (61 years ago)
Launch vehicle
VOSTOK 8A92M
Launch site
Tyuratam Missile And Space Complex (TTMTR)
Object type
Payload
Rocket body
Debris
Shape & HBR
Cyl + 2 Pan, 4.5 m
Radar Cross Section
5.718 m², Large (>1 m²)

Expand to show TLE details & history

TLE from 10 hours ago
0 COSMOS 44
1   876U 64053A   25169.69070223  .00000074  00000-0  35080-4 0  9992
2   876  65.0611 319.5583 0123768  39.3371 321.6640 14.65396343235926
Epoch: 2025-06-18T16:34Z
TLE epoch observation values (Epoch: 2025-06-18T16:34:36.672Z)
Latitude
-0°
Longitude
163.73638°
Altitude
609.745 km
Speed
7.591 km/s
True Right ascension
21h 18m 13s
True Declination
0° 00' 00"
Sunlit
Object was in full shadow at epoch
Visualization orbit readout
Latitude
45.62526°
Longitude
-45.75297°
Altitude
679.109 km
Speed
7.524 km/s
Apparent Right ascension
04h 35m 17s
Apparent Declination
7° 20' 49"
Sunlit
Object is in daylight
Visualization observer readout
Local Sidereal Time
13:48:29
Azimuth
310.983° NW
Elevation
-29.07°
Doppler factor
1
Orbital elements
Apogee altitude
761.638 km
Perigee altitude
587.063 km
Semi-major axis
7,052.488 km
Eccentricity
0.01238
Inclination
65.0611°
RAAN
319.5583°
Arg. of periapsis
39.3371°
True anomaly
Unknown
Mean anomaly
321.664°
Eccentric anomaly
Unknown
Mean motion
3.66463 °/min
Orbital period
98.24 mins
BSTAR
0.00003508
Loading maneuver chart data...
Loading SW <> Apogee altitude chart data...
Loading historical data...
Loading historical data...
Loading historical data...
Loading historical data...
Loading historical data...
Loading historical data...
Loading historical data...
Other satellites on launch #53 in the year 1964 (1964-08-28 UTC)

COSMOS 44 Visibility forecast

Observer location: undefined°, undefined°

Span
Click to sort rows by Start time (UTC) header in descending order
Start Az.
Max El. time (UTC)
Max El. Az.
Max El.
End time (UTC)
End Az.
5 mins2025-06-19 10:43:34.289Z153.156° SSE2025-06-19 10:46:34.289Z103.577° ESE18.659°2025-06-19 10:48:34.289Z71.555° E
6 mins2025-06-19 12:24:34.289Z250.879° W2025-06-19 12:26:34.289Z293.008° NW30.656°2025-06-19 12:30:34.289Z13.84° NNE
5 mins2025-06-19 19:18:34.289Z13.132° NNE2025-06-19 19:20:34.289Z44.743° NE18.793°2025-06-19 19:23:34.289Z87.727° E
8 mins2025-06-19 20:58:34.289Z316.21° NNW2025-06-19 21:01:34.289Z266.774° W38.974°2025-06-19 21:06:34.289Z165.742° S
|